EHI
6 5 4 3 2 2 1 0 1 2 3 2 1 0 0 0 0 0 0 0 0 0 0 0 0 0 0 0 0 0 0 0 0 0 0 0 0 0 0 0 0 0 0
5 4 3 2 1 1 0 0 0 1 1 1 0 0 0 0 0 0 0 0 0 0 0 0 0 0 0 0 0 0 0 0 0 0 0 0 0 0 0 0 0 0 0
3 2 1 1 0 0 0 0 0 0 0 0 0 0 0 0 0 0 0 0 0 0 0 0 0 0 0 0 0 0 0 0 0 0 0 0 0 0 0 0 0 0 0
1 1 0 0 0 0 0 0 0 0 0 0 0 0 0 0 0 0 0 0 0 0 0 0 0 0 0 0 0 0 0 0 0 0 0 0 0 0 0 0 0 0 0
0 0 0 0 0 0 0 0 0 0 0 0 0 0 0 0 0 0 0 0 0 0 0 0 0 0 0 0 0 0 0 0 0 0 0 0 0 0 0 0 0 0 0
0 0 0 0 0 0 0 0 0 0 0 0 0 0 0 0 0 0 0 0 0 0 0 0 0 0 0 0 0 0 0 0 0 0 0 0 0 0 0 0 0 0 0
0 0 0 0 0 0 0 0 0 0 0 0 0 0 0 0 0 0 0 0 0 0 0 0 0 0 0 0 0 0 0 0 0 0 0 0 0 0 0 0 0 0 0
0 0 0 0 0 0 0 0 0 0 0 0 0 0 0 0 0 0 0 0 0 0 0 0 0 0 0 0 0 0 0 0 0 0 0 0 0 0 0 0 0 0 0
0 0 0 0 0 0 0 0 0 0 0 0 0 0 0 0 0 0 0 0 0 0 0 0 0 0 0 0 0 0 0 0 0 0 0 0 0 0 0 0 0 0 0
0 0 0 0 0 0 0 0 0 0 0 0 0 0 0 0 0 0 0 0 0 0 0 0 0 0 0 0 0 0 0 0 0 0 0 0 0 0 0 0 0 0 0
0 0 0 0 0 0 0 0 0 0 0 0 0 0 0 0 0 0 0 0 0 0 0 0 0 0 0 0 0 0 0 0 0 0 0 0 0 0 0 0 0 0 0
0 0 0 0 0 0 0 0 0 0 0 0 0 0 0 0 0 0 0 0 0 0 0 0 0 0 0 0 0 0 0 0 0 0 0 0 0 0 0 0 0 0 0
0 0 0 0 0 0 0 0 0 0 0 0 0 0 0 0 0 0 0 0 0 0 0 0 0 0 0 0 0 0 0 0 0 0 0 0 0 0 0 0 0 0 0
0 0 0 0 0 0 0 0 0 0 0 0 0 0 0 0 0 0 0 0 0 0 0 0 0 0 0 0 0 0 0 0 0 0 0 0 0 0 0 0 0 0 0
0 0 0 0 0 0 0 0 0 0 0 0 0 0 0 0 0 0 0 0 0 0 0 0 0 0 0 0 0 0 0 0 0 0 0 0 0 0 0 0 0 0 0
0 0 0 0 0 0 0 0 0 0 0 0 0 0 0 0 0 0 0 0 0 0 0 0 0 0 0 0 0 0 0 0 0 0 0 0 0 0 0 0 0 0 0
0 0 0 0 0 0 0 0 0 0 0 0 0 0 0 0 0 0 0 0 0 0 0 0 0 0 0 0 0 0 0 0 0 0 0 0 0 0 0 0 0 0 0
0 0 0 0 0 0 0 0 0 0 0 0 0 0 0 0 0 0 0 0 0 0 0 0 0 0 0 0 0 0 0 0 0 0 0 0 0 0 0 0 0 0 0
0 0 0 0 0 0 0 0 0 0 0 0 0 0 0 0 0 0 0 0 0 0 0 0 0 0 0 0 0 0 0 0 0 0 0 0 0 0 0 0 0 0 0
0 0 0 0 0 0 0 0 0 0 0 0 0 0 0 0 0 0 0 0 0 0 0 0 0 0 0 0 0 0 0 0 0 0 0 0 0 0 0 0 0 0 0
0 0 0 0 0 0 0 0 0 0 0 0 0 0 0 0 0 0 0 0 0 0 0 0 0 0 0 0 0 0 0 0 0 0 0 0 0 0 0 0 0 0 0
0 0 0 0 0 0 0 0 0 0 0 0 0 0 0 0 0 0 0 0 0 0 0 0 0 0 0 0 0 0 0 0 0 0 0 0 0 0 0 0 0 0 0
0 0 0 0 0 0 0 0 0 0 0 0 0 0 0 0 0 0 0 0 0 0 0 0 0 0 0 0 0 0 0 0 0 0 0 0 0 0 0 0 0 0 0
0 0 0 0 0 0 0 0 0 0 0 0 0 0 0 0 0 0 0 0 0 0 0 0 0 0 0 0 0 0 0 0 0 0 0 0 0 0 0 0 0 0 0
0 0 0 0 0 0 0 0 0 0 0 0 0 0 0 0 0 0 0 0 0 0 0 0 0 0 0 0 0 0 0 0 0 0 0 0 0 0 0 0 0 0 0
0 0 0 0 0 0 0 0 0 0 0 0 0 0 0 0 0 0 0 0 0 0 0 0 0 0 0 0 0 0 0 0 0 0 0 0 0 0 0 0 0 0 0
Wind_Speed
6 6 6 6 6 6 6 6 5 5 5 5 5 6 6 5 5 5 5 6 7 6 6 7 7 6 6 5 5 5 6 6 8 5 4 5 5 6 6 4 5 6 5
6 6 6 6 6 7 7 6 6 6 6 6 6 7 7 6 6 6 7 7 7 7 7 7 7 7 7 6 5 6 5 5 9 10 6 5 5 5 5 4 5 7 6
6 7 7 7 7 7 7 6 6 6 7 8 8 8 8 7 6 7 7 8 7 7 7 8 8 7 7 6 6 6 6 7 7 9 7 5 4 4 4 4 4 3 6
6 7 7 7 6 6 6 7 6 7 8 8 8 8 8 8 8 8 8 8 8 9 9 8 7 6 6 7 7 7 8 8 8 7 7 5 4 3 3 2 2 3 3
6 6 6 6 6 6 6 6 6 7 8 8 8 9 8 8 8 8 8 9 9 10 10 10 11 13 12 8 7 7 7 6 6 6 6 5 4 3 2 2 2 2 1
6 6 6 6 6 7 6 6 7 8 8 9 9 9 10 9 12 13 9 9 9 9 9 9 11 13 17 18 18 15 10 7 6 5 5 5 4 3 1 1 1 1 1
6 6 6 6 6 6 7 7 8 8 8 9 9 9 10 12 15 14 12 8 9 8 8 7 9 10 10 9 12 13 13 13 10 6 6 5 4 2 2 2 2 1 1
6 6 6 5 6 6 7 7 7 7 7 7 8 8 9 12 14 13 11 9 9 9 9 9 9 9 9 7 9 9 10 9 8 7 6 6 5 4 3 2 1 1 1
6 6 5 5 6 6 7 7 6 6 6 7 6 7 8 10 13 12 9 7 8 10 10 10 9 9 11 9 8 8 8 6 10 11 9 7 7 6 4 3 2 1 0
6 6 5 5 5 6 6 6 5 5 6 6 6 7 8 8 12 12 7 5 6 6 7 8 13 11 12 10 6 6 6 5 5 4 4 2 2 1 1 1 2 2 2
6 6 6 5 5 6 5 5 5 5 6 6 6 6 7 7 9 11 10 4 4 5 6 5 6 10 12 11 9 6 4 3 1 2 2 2 1 1 0 0 1 2 2
6 6 6 4 5 5 5 5 5 5 5 5 5 5 5 6 7 9 12 11 9 6 5 5 4 7 8 8 6 5 6 4 1 1 2 2 1 1 1 1 0 0 1
6 6 5 5 5 4 4 4 3 3 3 3 4 5 5 4 5 9 10 12 11 6 5 6 5 4 3 2 3 4 4 2 1 2 2 2 2 1 0 1 2 2 3
7 6 5 5 5 4 3 3 4 3 3 3 3 4 4 4 4 4 3 4 5 5 3 3 3 1 1 1 0 1 1 2 2 2 2 1 1 0 1 1 1 2 2
6 5 5 5 5 6 6 6 6 6 4 3 3 4 4 5 3 5 4 4 4 4 2 1 2 2 2 2 1 1 1 1 1 1 2 1 1 1 1 1 1 2 2
5 5 4 4 4 5 6 7 10 8 10 12 10 8 6 6 4 6 8 8 7 7 3 1 1 1 1 1 1 1 2 2 1 1 1 1 2 2 2 2 2 2 2
5 4 3 4 4 3 5 6 5 5 8 10 9 9 7 4 5 6 7 8 7 5 2 1 1 1 1 1 1 2 2 2 1 1 1 2 2 2 2 2 2 2 2
4 3 3 3 3 4 4 5 5 6 5 4 3 3 3 2 2 4 5 5 4 3 2 1 1 1 1 1 2 2 2 1 1 1 1 2 2 3 3 3 2 2 3
4 3 3 3 3 3 3 4 5 6 6 5 4 3 2 2 3 5 4 4 4 2 1 1 2 2 2 1 1 1 1 1 1 1 1 1 2 2 3 3 3 3 3
3 1 1 2 4 4 4 4 4 5 5 5 5 5 5 4 4 4 4 4 2 0 1 2 2 1 0 0 0 1 1 1 1 1 1 1 1 2 3 3 3 4 4
5 5 3 3 3 3 3 3 4 4 4 4 4 4 3 4 4 4 3 1 1 2 2 1 1 2 1 1 0 1 1 0 0 1 1 1 2 2 3 3 4 4 4
4 5 5 3 3 2 2 3 3 3 4 5 5 5 5 4 3 2 2 2 2 1 1 1 2 1 2 2 2 2 2 1 1 2 2 2 3 3 3 3 4 4 4
4 4 4 3 3 3 3 4 3 4 4 5 6 5 5 4 2 1 2 2 1 1 1 1 1 1 3 2 1 1 2 2 3 3 3 4 4 4 4 4 5 5 5
4 5 4 4 4 5 4 4 4 4 4 4 4 4 4 3 1 1 1 1 2 2 2 1 1 1 2 1 1 1 2 2 2 2 4 4 5 5 5 5 5 6 6
5 5 5 5 5 5 4 4 4 3 4 3 3 3 3 4 4 3 3 3 3 3 3 3 2 2 3 3 2 3 4 3 2 1 2 4 5 6 6 7 6 6 7
6 5 5 5 5 5 4 4 4 4 4 4 4 3 3 3 3 3 3 3 3 3 3 3 4 4 4 4 4 6 7 6 5 4 3 4 6 6 6 6 8 8 8
Wind_Direction
40 38 36 36 38 43 46 42 38 39 44 49 46 48 48 48 52 62 68 68 70 69 75 87 89 92 102 107 109 108 110 115 122 127 139 149 143 141 149 159 157 167 175
42 43 42 39 46 50 50 44 42 47 50 56 59 57 54 54 56 64 71 69 75 79 80 86 91 95 95 99 104 111 114 119 131 135 140 140 142 150 155 171 172 178 179
49 52 48 46 52 53 53 51 49 54 55 56 61 63 58 54 59 66 72 74 73 76 79 84 89 96 101 106 110 114 118 119 120 128 135 138 143 153 161 186 181 177 187
55 58 54 53 53 58 59 58 56 58 61 58 58 57 57 54 57 67 75 76 75 73 74 75 78 85 97 107 108 111 116 118 121 125 130 136 139 155 163 182 183 199 193
60 65 65 64 62 64 67 67 63 60 63 61 62 57 54 52 49 59 73 79 78 79 78 78 77 79 78 84 93 100 110 116 121 127 132 135 142 155 176 190 173 181 177
66 68 71 73 70 68 66 66 70 66 63 63 62 59 56 51 42 50 65 74 76 80 85 88 85 81 81 80 80 78 82 102 115 122 125 129 133 138 147 153 133 125 166
74 75 74 77 77 72 72 70 71 71 70 68 65 63 61 46 44 47 55 68 70 68 68 71 78 72 71 83 81 74 67 67 77 97 104 112 111 105 96 90 86 93 157
85 78 70 72 80 79 77 77 74 73 74 76 72 67 64 48 42 45 54 66 66 64 62 64 67 56 48 71 84 77 68 59 65 71 73 73 71 51 40 62 96 126 251
84 80 71 75 85 89 84 81 78 79 78 79 77 72 65 47 38 43 55 72 70 65 61 56 59 57 42 71 88 89 86 79 74 78 82 85 81 65 43 19 357 37 13
86 84 78 76 83 89 91 90 87 85 85 85 80 73 69 58 42 40 46 88 91 87 78 67 55 52 48 56 73 81 83 83 93 94 85 85 102 90 25 358 1 22 29
96 92 86 81 84 85 86 87 90 92 91 88 86 79 71 66 56 47 46 62 90 96 87 73 52 48 52 54 61 65 64 44 85 125 137 144 152 160 188 45 40 52 33
101 99 96 93 93 92 85 84 89 96 99 99 98 93 80 66 53 50 51 55 64 76 86 85 72 58 55 50 52 36 20 1 330 119 109 107 97 83 67 60 3 303 231
105 100 100 100 85 83 89 97 98 100 102 109 107 102 94 84 63 54 58 61 65 71 79 93 96 70 48 50 43 12 349 342 50 74 77 81 96 99 275 273 268 268 267
114 113 110 106 95 84 67 65 61 48 56 75 89 98 98 81 56 41 67 90 94 92 101 114 114 67 357 47 342 319 14 43 38 44 55 51 54 304 286 286 291 290 287
117 120 121 113 103 85 69 52 63 51 48 59 54 73 87 80 42 33 40 42 42 40 351 203 194 191 199 195 165 137 118 108 50 32 35 13 350 338 316 299 290 295 299
120 128 128 124 124 123 111 88 55 68 68 68 68 75 77 86 83 50 44 35 26 11 354 278 176 150 141 128 130 133 117 89 52 23 17 4 354 341 327 316 308 309 314
123 129 133 135 138 135 130 126 116 81 64 66 70 77 86 89 56 34 19 358 336 333 312 275 92 63 56 64 64 69 79 83 38 356 4 2 349 334 331 325 327 329 324
139 147 157 154 155 144 139 145 146 142 131 114 91 87 92 67 17 354 349 334 287 251 246 178 118 102 68 45 56 64 72 95 74 6 18 9 347 332 329 323 320 327 321
161 158 164 163 165 153 157 154 146 141 136 137 143 162 216 245 277 279 290 272 278 271 149 107 84 78 78 77 72 83 67 66 69 348 325 308 308 308 313 315 312 305 287
138 124 200 187 165 163 162 151 143 144 143 152 166 167 176 205 227 229 230 246 257 35 68 89 94 97 92 208 177 165 194 175 186 246 261 287 301 305 305 305 304 302 294
164 162 204 220 180 163 161 160 156 157 160 165 155 142 175 231 224 210 203 206 61 63 53 4 229 181 169 195 66 18 335 12 93 330 324 315 307 297 290 289 292 293 300
173 172 192 188 158 155 162 170 171 174 169 156 149 168 199 247 253 196 148 123 117 121 108 315 316 50 69 42 41 349 332 7 30 29 349 326 306 295 293 294 298 303 302
192 183 179 171 159 165 220 206 190 186 183 175 173 174 189 225 226 165 121 119 126 123 134 215 291 36 82 81 35 321 347 31 27 26 347 320 318 315 310 306 308 309 307
199 188 180 170 181 200 211 203 205 198 188 182 181 183 179 187 200 148 153 163 171 184 196 199 203 117 129 158 230 59 61 55 20 356 348 326 314 306 308 308 305 303 303
211 198 194 189 200 212 211 210 215 207 195 191 195 205 192 183 184 188 186 187 198 203 201 201 205 202 199 208 178 143 141 140 145 308 308 295 294 297 297 296 297 300 302
218 206 203 203 207 213 215 219 217 213 212 207 205 207 213 208 199 195 191 195 208 202 207 213 206 200 205 212 185 167 173 186 198 215 253 274 281 284 291 293 298 297 292